| time (UTC) | temp C | wind direction | speed KPH | gust KPH | rain 1hr cm | rain 24hr cm | rain mn cm | humidity % | barometer mb |
| 20260504000248 | 23 | 14 | 0.0 | 1.6 | 0.00 | 0.05 | 0.05 | 40 | 1017.8 |
| 20260503235746 | 23 | 34 | 0.0 | 1.6 | 0.00 | 0.05 | 0.05 | 41 | 1017.8 |
| 20260503235243 | 23 | 34 | 1.6 | 1.6 | 0.00 | 0.05 | 0.05 | 41 | 1017.8 |
| 20260503234741 | 23 | 29 | 3.2 | 3.2 | 0.00 | 0.05 | 0.05 | 37 | 1017.7 |
| 20260503234239 | 23 | 32 | 3.2 | 4.8 | 0.00 | 0.05 | 0.05 | 37 | 1017.7 |
| 20260503233736 | 23 | 41 | 3.2 | 3.2 | 0.00 | 0.05 | 0.05 | 39 | 1017.8 |
| 20260503233231 | 24 | 20 | 3.2 | 3.2 | 0.00 | 0.05 | 0.05 | 36 | 1017.9 |
| 20260503232728 | 24 | 28 | 1.6 | 1.6 | 0.00 | 0.05 | 0.05 | 34 | 1018.1 |
| 20260503232226 | 24 | 7 | 1.6 | 1.6 | 0.00 | 0.05 | 0.05 | 35 | 1018.0 |
| 20260503231724 | 24 | 26 | 3.2 | 3.2 | 0.00 | 0.05 | 0.05 | 34 | 1018.0 |
| 20260503231220 | 24 | 3 | 3.2 | 4.8 | 0.00 | 0.05 | 0.05 | 35 | 1018.1 |
| 20260503230711 | 23 | 49 | 4.8 | 6.4 | 0.00 | 0.05 | 0.05 | 35 | 1018.0 |
| 20260503230209 | 23 | 355 | 4.8 | 6.4 | 0.00 | 0.05 | 0.05 | 35 | 1017.9 |
| 20260503225706 | 23 | 13 | 6.4 | 6.4 | 0.00 | 0.05 | 0.05 | 34 | 1017.8 |
| 20260503225205 | 24 | 53 | 4.8 | 6.4 | 0.00 | 0.05 | 0.05 | 36 | 1018.0 |
| 20260503224703 | 25 | 54 | 6.4 | 6.4 | 0.00 | 0.05 | 0.05 | 34 | 1018.1 |
| 20260503224200 | 25 | 24 | 4.8 | 4.8 | 0.00 | 0.05 | 0.05 | 33 | 1018.1 |
| 20260503223658 | 25 | 20 | 1.6 | 3.2 | 0.00 | 0.05 | 0.05 | 34 | 1017.9 |
| 20260503223154 | 25 | 43 | 3.2 | 4.8 | 0.00 | 0.05 | 0.05 | 34 | 1017.9 |
| 20260503222652 | 25 | 348 | 4.8 | 4.8 | 0.00 | 0.05 | 0.05 | 33 | 1017.9 |
| 20260503222149 | 25 | 28 | 6.4 | 9.7 | 0.00 | 0.05 | 0.05 | 33 | 1017.9 |
| 20260503221648 | 25 | 9 | 4.8 | 6.4 | 0.00 | 0.05 | 0.05 | 32 | 1017.9 |
| 20260503221144 | 25 | 40 | 3.2 | 3.2 | 0.00 | 0.05 | 0.05 | 33 | 1018.1 |
| 20260503220641 | 25 | 351 | 3.2 | 4.8 | 0.00 | 0.05 | 0.05 | 31 | 1018.0 |
| 20260503220138 | 25 | 75 | 6.4 | 6.4 | 0.00 | 0.05 | 0.05 | 32 | 1017.9 |
| 20260503215635 | 25 | 8 | 9.7 | 12.9 | 0.00 | 0.05 | 0.05 | 32 | 1017.8 |
| 20260503215131 | 25 | 23 | 6.4 | 9.7 | 0.00 | 0.05 | 0.05 | 31 | 1018.1 |
| 20260503214630 | 26 | 359 | 3.2 | 3.2 | 0.00 | 0.05 | 0.05 | 32 | 1018.1 |
| 20260503214126 | 26 | 318 | 1.6 | 1.6 | 0.00 | 0.05 | 0.05 | 34 | 1018.1 |
| 20260503213620 | 25 | 319 | 3.2 | 3.2 | 0.00 | 0.05 | 0.05 | 32 | 1018.0 |
| 20260503213116 | 25 | 316 | 9.7 | 12.9 | 0.00 | 0.05 | 0.05 | 31 | 1018.1 |
| 20260503212614 | 25 | 16 | 8.0 | 9.7 | 0.00 | 0.05 | 0.05 | 33 | 1018.2 |
| 20260503212111 | 25 | 14 | 1.6 | 3.2 | 0.00 | 0.05 | 0.05 | 33 | 1018.1 |
| 20260503211608 | 25 | 19 | 3.2 | 4.8 | 0.00 | 0.05 | 0.05 | 35 | 1018.2 |
| 20260503211103 | 26 | 357 | 4.8 | 4.8 | 0.00 | 0.05 | 0.05 | 33 | 1018.5 |
| 20260503210600 | 26 | 340 | 3.2 | 4.8 | 0.00 | 0.05 | 0.05 | 33 | 1018.6 |
| 20260503210055 | 26 | 301 | 6.4 | 6.4 | 0.00 | 0.05 | 0.05 | 31 | 1018.5 |
| 20260503205552 | 25 | 19 | 6.4 | 6.4 | 0.00 | 0.05 | 0.05 | 32 | 1018.6 |
| 20260503205049 | 25 | 45 | 4.8 | 6.4 | 0.00 | 0.05 | 0.05 | 35 | 1018.8 |
| 20260503204546 | 25 | 282 | 3.2 | 4.8 | 0.00 | 0.05 | 0.05 | 36 | 1018.5 |
| 20260503204043 | 25 | 33 | 9.7 | 11.3 | 0.00 | 0.05 | 0.05 | 32 | 1018.8 |
| 20260503203541 | 25 | 1 | 4.8 | 4.8 | 0.00 | 0.05 | 0.05 | 32 | 1018.9 |
| 20260503203037 | 25 | 22 | 1.6 | 3.2 | 0.00 | 0.05 | 0.05 | 34 | 1018.9 |
| 20260503202535 | 25 | 31 | 3.2 | 4.8 | 0.00 | 0.05 | 0.05 | 32 | 1018.9 |
| 20260503202033 | 25 | 34 | 3.2 | 3.2 | 0.00 | 0.05 | 0.05 | 34 | 1019.0 |
| 20260503201531 | 26 | 10 | 6.4 | 9.7 | 0.00 | 0.05 | 0.05 | 34 | 1019.0 |
| 20260503201028 | 26 | 23 | 3.2 | 4.8 | 0.00 | 0.05 | 0.05 | 31 | 1019.1 |
| 20260503200524 | 25 | 14 | 3.2 | 4.8 | 0.00 | 0.05 | 0.05 | 34 | 1019.3 |
| 20260503200021 | 25 | 22 | 11.3 | 16.1 | 0.00 | 0.05 | 0.05 | 32 | 1019.3 |
| 20260503195519 | 25 | 20 | 3.2 | 4.8 | 0.00 | 0.05 | 0.05 | 34 | 1019.4 |
| 20260503195015 | 25 | 77 | 6.4 | 6.4 | 0.00 | 0.05 | 0.05 | 35 | 1019.5 |
| 20260503194512 | 25 | 19 | 6.4 | 9.7 | 0.00 | 0.05 | 0.05 | 34 | 1019.6 |
| 20260503194012 | 25 | 4 | 4.8 | 6.4 | 0.00 | 0.05 | 0.05 | 33 | 1019.6 |
| 20260503193509 | 25 | 84 | 3.2 | 4.8 | 0.00 | 0.05 | 0.05 | 34 | 1019.8 |
| 20260503193004 | 25 | 50 | 0.0 | 1.6 | 0.00 | 0.05 | 0.05 | 34 | 1020.0 |
| 20260503192500 | 25 | 16 | 3.2 | 3.2 | 0.00 | 0.05 | 0.05 | 35 | 1019.9 |
| 20260503191955 | 25 | 237 | 9.7 | 16.1 | 0.00 | 0.05 | 0.05 | 34 | 1019.9 |
| 20260503191453 | 25 | 7 | 4.8 | 4.8 | 0.00 | 0.05 | 0.05 | 34 | 1020.1 |
| 20260503190949 | 25 | 2 | 3.2 | 4.8 | 0.00 | 0.05 | 0.05 | 33 | 1020.1 |
| 20260503190447 | 25 | 24 | 3.2 | 3.2 | 0.00 | 0.05 | 0.05 | 32 | 1020.5 |
| 20260503185944 | 25 | 43 | 4.8 | 6.4 | 0.00 | 0.05 | 0.05 | 32 | 1020.3 |
| 20260503185440 | 24 | 15 | 8.0 | 11.3 | 0.00 | 0.05 | 0.05 | 31 | 1020.6 |
| 20260503184940 | 25 | 18 | 9.7 | 12.9 | 0.00 | 0.05 | 0.05 | 33 | 1020.5 |
| 20260503184436 | 25 | 345 | 3.2 | 6.4 | 0.00 | 0.05 | 0.05 | 32 | 1020.8 |
| 20260503183933 | 25 | 321 | 8.0 | 9.7 | 0.00 | 0.05 | 0.05 | 35 | 1020.9 |
| 20260503183430 | 25 | 24 | 6.4 | 6.4 | 0.00 | 0.05 | 0.05 | 35 | 1021.1 |
| 20260503182927 | 25 | 30 | 8.0 | 9.7 | 0.00 | 0.05 | 0.05 | 33 | 1020.9 |
| 20260503182426 | 25 | 31 | 4.8 | 4.8 | 0.00 | 0.05 | 0.05 | 35 | 1021.1 |
| 20260503181923 | 25 | 16 | 6.4 | 11.3 | 0.00 | 0.05 | 0.05 | 34 | 1021.2 |
| 20260503181420 | 25 | 37 | 3.2 | 6.4 | 0.00 | 0.05 | 0.05 | 36 | 1021.0 |
| 20260503180916 | 25 | 53 | 8.0 | 9.7 | 0.00 | 0.05 | 0.05 | 34 | 1021.3 |
| 20260503180414 | 25 | 355 | 9.7 | 12.9 | 0.00 | 0.05 | 0.05 | 38 | 1021.0 |
| 20260503175910 | 24 | 59 | 3.2 | 4.8 | 0.00 | 0.05 | 0.05 | 37 | 1021.3 |
| 20260503175408 | 24 | 44 | 6.4 | 9.7 | 0.00 | 0.05 | 0.05 | 35 | 1021.2 |
| 20260503174903 | 24 | 59 | 3.2 | 4.8 | 0.00 | 0.05 | 0.05 | 35 | 1021.2 |
| 20260503174402 | 25 | 48 | 8.0 | 9.7 | 0.00 | 0.05 | 0.05 | 33 | 1021.4 |
| 20260503173856 | 25 | 316 | 3.2 | 3.2 | 0.00 | 0.05 | 0.05 | 36 | 1021.3 |
| 20260503173353 | 24 | 288 | 3.2 | 4.8 | 0.00 | 0.05 | 0.05 | 36 | 1021.4 |
| 20260503172849 | 23 | 7 | 4.8 | 6.4 | 0.00 | 0.05 | 0.05 | 34 | 1021.5 |
| 20260503172347 | 23 | 359 | 6.4 | 6.4 | 0.00 | 0.05 | 0.05 | 35 | 1021.4 |
| 20260503171843 | 23 | 27 | 1.6 | 1.6 | 0.00 | 0.05 | 0.05 | 34 | 1021.5 |
| 20260503171340 | 23 | 44 | 11.3 | 14.5 | 0.00 | 0.05 | 0.05 | 34 | 1021.7 |
| 20260503170837 | 24 | 19 | 9.7 | 11.3 | 0.00 | 0.05 | 0.05 | 34 | 1021.7 |
| 20260503170334 | 23 | 25 | 3.2 | 3.2 | 0.00 | 0.05 | 0.05 | 36 | 1021.7 |
| 20260503150726 | 21 | 32 | 4.8 | 4.8 | 0.00 | 0.05 | 0.05 | 41 | 1022.5 |
| 20260503150222 | 21 | 344 | 6.4 | 6.4 | 0.00 | 0.05 | 0.05 | 42 | 1022.5 |
| 20260503140147 | 20 | 55 | 1.6 | 3.2 | 0.00 | 0.03 | 0.03 | 55 | 1022.0 |
| 20260503131116 | 16 | 34 | 3.2 | 3.2 | 0.00 | 0.03 | 0.03 | 68 | 1021.9 |
| 20260503130614 | 15 | 58 | 3.2 | 3.2 | 0.00 | 0.03 | 0.03 | 68 | 1021.8 |
| 20260503130112 | 15 | 29 | 3.2 | 3.2 | 0.00 | 0.03 | 0.03 | 71 | 1021.7 |
| 20260503110504 | 7 | 67 | 0.0 | 1.6 | 0.00 | 0.03 | 0.03 | 94 | 1020.7 |
| 20260503090355 | 8 | 36 | 0.0 | 0.0 | 0.00 | 0.03 | 0.03 | 88 | 1020.1 |
| 20260503081323 | 8 | 42 | 0.0 | 0.0 | 0.00 | 0.03 | 0.03 | 86 | 1019.6 |
| 20260503080819 | 8 | 42 | 0.0 | 0.0 | 0.00 | 0.03 | 0.03 | 86 | 1019.7 |
| 20260503080317 | 9 | 52 | 0.0 | 0.0 | 0.00 | 0.03 | 0.03 | 86 | 1019.5 |
| 20260503072753 | 10 | 48 | 0.0 | 0.0 | 0.00 | 0.03 | 0.03 | 84 | 1019.2 |
| 20260503072250 | 10 | 54 | 0.0 | 0.0 | 0.00 | 0.03 | 0.03 | 84 | 1019.1 |
| 20260503071746 | 10 | 40 | 0.0 | 0.0 | 0.00 | 0.03 | 0.03 | 84 | 1019.2 |
| 20260503071243 | 10 | 41 | 0.0 | 0.0 | 0.00 | 0.03 | 0.03 | 84 | 1019.2 |
| 20260503070739 | 10 | 49 | 1.6 | 1.6 | 0.00 | 0.03 | 0.03 | 85 | 1019.2 |
| 20260503070238 | 10 | 52 | 0.0 | 1.6 | 0.00 | 0.03 | 0.03 | 86 | 1019.2 |
| 20260503060202 | 10 | 36 | 0.0 | 0.0 | 0.00 | 0.03 | 0.03 | 85 | 1019.4 |
| 20260503054649 | 11 | 36 | 0.0 | 0.0 | 0.00 | 0.03 | 0.03 | 81 | 1019.1 |
| 20260503054147 | 11 | 36 | 0.0 | 0.0 | 0.00 | 0.03 | 0.03 | 79 | 1019.2 |
| 20260503053644 | 11 | 36 | 0.0 | 0.0 | 0.00 | 0.03 | 0.03 | 78 | 1019.1 |
| 20260503053143 | 11 | 35 | 0.0 | 0.0 | 0.00 | 0.03 | 0.03 | 78 | 1019.0 |
| 20260503052639 | 11 | 34 | 0.0 | 0.0 | 0.00 | 0.03 | 0.03 | 77 | 1018.9 |
| 20260503052135 | 11 | 32 | 1.6 | 1.6 | 0.00 | 0.03 | 0.03 | 78 | 1019.0 |
| 20260503051630 | 12 | 28 | 0.0 | 0.0 | 0.00 | 0.03 | 0.03 | 78 | 1019.0 |
| 20260503051129 | 12 | 44 | 0.0 | 0.0 | 0.18 | 0.03 | 0.03 | 78 | 1018.9 |
| 20260503050625 | 12 | 40 | 1.6 | 1.6 | 0.18 | 0.03 | 0.03 | 78 | 1018.9 |
| 20260503050122 | 12 | 58 | 1.6 | 1.6 | 0.00 | 0.00 | 0.00 | 80 | 1018.9 |
| 20260503045620 | 11 | 32 | 3.2 | 3.2 | 0.00 | 0.25 | 0.25 | 85 | 1018.6 |
| 20260503045116 | 11 | 18 | 1.6 | 1.6 | 0.00 | 0.25 | 0.25 | 87 | 1018.6 |
| 20260503044613 | 10 | 32 | 1.6 | 1.6 | 0.00 | 0.25 | 0.25 | 89 | 1018.7 |
| 20260503044111 | 10 | 41 | 0.0 | 0.0 | 0.00 | 0.25 | 0.25 | 89 | 1018.8 |
| 20260503043607 | 10 | 45 | 0.0 | 0.0 | 0.00 | 0.25 | 0.25 | 89 | 1018.8 |
| 20260503043104 | 10 | 45 | 0.0 | 0.0 | 0.00 | 0.25 | 0.25 | 89 | 1018.7 |
| 20260503042600 | 10 | 41 | 0.0 | 0.0 | 0.00 | 0.25 | 0.25 | 89 | 1018.8 |
| 20260503042056 | 10 | 34 | 0.0 | 0.0 | 0.00 | 0.25 | 0.25 | 89 | 1018.7 |
| 20260503041553 | 11 | 41 | 0.0 | 0.0 | 0.00 | 0.25 | 0.25 | 88 | 1018.7 |
| 20260503041051 | 11 | 46 | 0.0 | 0.0 | 0.00 | 0.25 | 0.25 | 88 | 1018.8 |
| 20260503040548 | 11 | 49 | 0.0 | 0.0 | 0.00 | 0.25 | 0.25 | 88 | 1018.7 |
| 20260503040045 | 11 | 49 | 0.0 | 0.0 | 0.00 | 0.25 | 0.25 | 88 | 1018.6 |
| 20260503035542 | 11 | 45 | 0.0 | 0.0 | 0.00 | 0.25 | 0.25 | 86 | 1018.8 |
| 20260503035040 | 11 | 45 | 0.0 | 0.0 | 0.00 | 0.25 | 0.25 | 86 | 1018.7 |
| 20260503034537 | 11 | 45 | 0.0 | 0.0 | 0.00 | 0.25 | 0.25 | 86 | 1018.7 |
| 20260503034034 | 11 | 45 | 0.0 | 0.0 | 0.00 | 0.25 | 0.25 | 85 | 1018.5 |
| 20260503033531 | 11 | 69 | 0.0 | 0.0 | 0.00 | 0.25 | 0.25 | 84 | 1018.4 |
| 20260503033029 | 11 | 69 | 0.0 | 0.0 | 0.00 | 0.25 | 0.25 | 84 | 1018.4 |
| 20260503032527 | 12 | 62 | 0.0 | 0.0 | 0.00 | 0.25 | 0.25 | 82 | 1018.4 |
| 20260503032025 | 12 | 39 | 0.0 | 0.0 | 0.00 | 0.25 | 0.25 | 81 | 1018.3 |
| 20260503031522 | 12 | 44 | 0.0 | 0.0 | 0.00 | 0.25 | 0.25 | 79 | 1018.2 |
| 20260503031019 | 12 | 43 | 0.0 | 0.0 | 0.00 | 0.25 | 0.25 | 78 | 1018.2 |
| 20260503030515 | 12 | 43 | 0.0 | 0.0 | 0.00 | 0.25 | 0.25 | 76 | 1018.3 |
| 20260503030013 | 12 | 43 | 0.0 | 0.0 | 0.00 | 0.25 | 0.25 | 74 | 1018.1 |
| 20260503025509 | 13 | 43 | 0.0 | 0.0 | 0.00 | 0.25 | 0.25 | 73 | 1018.1 |
| 20260503025007 | 13 | 44 | 0.0 | 0.0 | 0.00 | 0.25 | 0.25 | 71 | 1018.1 |
| 20260503024503 | 13 | 47 | 0.0 | 0.0 | 0.00 | 0.25 | 0.25 | 70 | 1018.1 |
| 20260503024000 | 13 | 46 | 0.0 | 0.0 | 0.00 | 0.25 | 0.25 | 69 | 1017.9 |
| 20260503023457 | 13 | 45 | 0.0 | 0.0 | 0.00 | 0.25 | 0.25 | 67 | 1017.9 |
| 20260503022954 | 14 | 46 | 0.0 | 0.0 | 0.00 | 0.25 | 0.25 | 65 | 1017.8 |
| 20260503022449 | 14 | 34 | 0.0 | 0.0 | 0.00 | 0.25 | 0.25 | 64 | 1018.0 |
| 20260503021945 | 15 | 27 | 0.0 | 0.0 | 0.00 | 0.25 | 0.25 | 63 | 1017.7 |
| 20260503021442 | 15 | 20 | 1.6 | 1.6 | 0.00 | 0.25 | 0.25 | 63 | 1017.6 |
| 20260503020939 | 15 | 45 | 1.6 | 1.6 | 0.00 | 0.25 | 0.25 | 63 | 1017.6 |
| 20260503020437 | 15 | 32 | 1.6 | 1.6 | 0.00 | 0.25 | 0.25 | 63 | 1017.5 |
| 20260503015933 | 15 | 38 | 3.2 | 3.2 | 0.00 | 0.25 | 0.25 | 62 | 1017.5 |
| 20260503015430 | 15 | 27 | 1.6 | 1.6 | 0.00 | 0.25 | 0.25 | 62 | 1017.4 |
| 20260503014926 | 15 | 36 | 1.6 | 1.6 | 0.00 | 0.25 | 0.25 | 62 | 1017.4 |
| 20260503014423 | 15 | 43 | 0.0 | 0.0 | 0.00 | 0.25 | 0.25 | 60 | 1017.4 |
| 20260503013921 | 15 | 34 | 1.6 | 1.6 | 0.00 | 0.25 | 0.25 | 60 | 1017.1 |
| 20260503013418 | 16 | 344 | 3.2 | 3.2 | 0.00 | 0.25 | 0.25 | 59 | 1017.1 |
| 20260503012915 | 16 | 322 | 4.8 | 6.4 | 0.00 | 0.25 | 0.25 | 60 | 1017.1 |
| 20260503012413 | 16 | 330 | 3.2 | 3.2 | 0.00 | 0.25 | 0.25 | 59 | 1016.9 |
| 20260503011909 | 16 | 35 | 3.2 | 3.2 | 0.00 | 0.25 | 0.25 | 58 | 1016.9 |
| 20260503011406 | 16 | 29 | 1.6 | 1.6 | 0.00 | 0.25 | 0.25 | 58 | 1016.8 |
| 20260503010903 | 16 | 22 | 1.6 | 1.6 | 0.00 | 0.25 | 0.25 | 57 | 1016.8 |
| 20260503010400 | 16 | 358 | 1.6 | 3.2 | 0.00 | 0.25 | 0.25 | 56 | 1016.6 |
| 20260503005857 | 16 | 7 | 3.2 | 4.8 | 0.00 | 0.25 | 0.25 | 56 | 1016.6 |
| 20260503005354 | 17 | 29 | 3.2 | 4.8 | 0.00 | 0.25 | 0.25 | 55 | 1016.4 |
| 20260503004850 | 17 | 27 | 3.2 | 3.2 | 0.00 | 0.25 | 0.25 | 55 | 1016.5 |
| 20260503004348 | 17 | 17 | 3.2 | 4.8 | 0.00 | 0.25 | 0.25 | 54 | 1016.2 |
| 20260503003845 | 17 | 28 | 1.6 | 1.6 | 0.00 | 0.25 | 0.25 | 53 | 1016.2 |
| 20260503003342 | 18 | 35 | 3.2 | 3.2 | 0.00 | 0.25 | 0.25 | 51 | 1016.0 |
| 20260503002838 | 18 | 2 | 3.2 | 4.8 | 0.00 | 0.25 | 0.25 | 50 | 1015.8 |
| 20260503002336 | 18 | 34 | 4.8 | 6.4 | 0.00 | 0.25 | 0.25 | 49 | 1015.6 |
| 20260503001832 | 18 | 36 | 3.2 | 4.8 | 0.00 | 0.25 | 0.25 | 49 | 1015.6 |
| 20260503001328 | 19 | 47 | 4.8 | 4.8 | 0.00 | 0.25 | 0.25 | 47 | 1015.5 |
| 20260503000826 | 19 | 334 | 6.4 | 6.4 | 0.00 | 0.25 | 0.25 | 46 | 1015.5 |
| 20260503000325 | 20 | 69 | 6.4 | 6.4 | 0.00 | 0.25 | 0.25 | 46 | 1015.4 |